TimeGMT,TemperatureF,Dew PointF,Humidity,Sea Level PressureIn,VisibilityMPH,Wind Direction,Wind SpeedMPH,Gust SpeedMPH,PrecipitationIn,Events,Conditions,WindDirDegrees,DateUTC
12:50 AM,48.2,41.0,76,30.04,6.2,WSW,4.6,-,N/A,,Overcast,250,2012-11-14 00:50:00
1:50 AM,48.2,41.0,76,30.04,6.2,SW,8.1,-,N/A,,Mostly Cloudy,220,2012-11-14 01:50:00
2:50 AM,49,41,66,30.05,34,SSW,8.1,,,,Mostly Cloudy,200,2012-11-14 02:50:00
2:50 AM,48.2,41.0,76,30.04,6.2,SSW,8.1,-,N/A,,Mostly Cloudy,200,2012-11-14 02:50:00
3:50 AM,48.2,41.0,76,30.04,6.2,SSW,9.2,-,N/A,,Mostly Cloudy,200,2012-11-14 03:50:00
4:50 AM,48.2,39.2,71,30.04,6.2,SW,5.8,-,N/A,,Mostly Cloudy,220,2012-11-14 04:50:00
5:50 AM,48,40,67,30.06,37,SSW,9.2,,,,,210,2012-11-14 05:50:00
5:50 AM,48.2,41.0,76,30.06,6.2,SSW,9.2,-,N/A,,Overcast,210,2012-11-14 05:50:00
6:50 AM,48.2,41.0,76,30.06,6.2,SSW,9.2,-,N/A,,Overcast,210,2012-11-14 06:50:00
7:50 AM,48.2,41.0,76,30.06,6.2,South,10.4,-,N/A,,Overcast,190,2012-11-14 07:50:00
8:50 AM,49,41,66,30.09,37,SSW,8.1,,,,Overcast,200,2012-11-14 08:50:00
8:50 AM,48.2,41.0,76,30.06,6.2,SSW,8.1,-,N/A,,Mostly Cloudy,200,2012-11-14 08:50:00
9:50 AM,50.0,41.0,71,30.06,6.2,WSW,4.6,-,N/A,,Mostly Cloudy,240,2012-11-14 09:50:00
10:50 AM,51.8,41.0,67,30.09,6.2,SW,10.4,-,N/A,,Mostly Cloudy,230,2012-11-14 10:50:00
11:50 AM,51,41,60,30.09,28,SW,6.9,,,,Overcast,230,2012-11-14 11:50:00
11:50 AM,51.8,41.0,67,30.09,6.2,SW,6.9,-,N/A,,Mostly Cloudy,230,2012-11-14 11:50:00
12:50 PM,51.8,41.0,67,30.06,6.2,SW,11.5,-,N/A,,Mostly Cloudy,230,2012-11-14 12:50:00
1:50 PM,53.6,41.0,62,30.06,6.2,SW,18.4,-,N/A,,Mostly Cloudy,230,2012-11-14 13:50:00
2:50 PM,52,38,47,30.08,40,WSW,16.1,,,,Overcast,240,2012-11-14 14:50:00
2:50 PM,51.8,37.4,58,30.06,-9999.0,WSW,16.1,-,N/A,,Clear,240,2012-11-14 14:50:00
3:50 PM,51.8,37.4,58,30.09,6.2,WSW,13.8,-,N/A,,Mostly Cloudy,240,2012-11-14 15:50:00
4:50 PM,50.0,41.0,71,30.09,-9999.0,SW,17.3,-,N/A,,Clear,230,2012-11-14 16:50:00
5:50 PM,46,39,69,30.13,37,WSW,9.2,,,,Scattered Clouds,240,2012-11-14 17:50:00
5:50 PM,46.4,39.2,76,30.12,6.2,WSW,9.2,-,N/A,,Scattered Clouds,240,2012-11-14 17:50:00
6:50 PM,42.8,37.4,81,30.15,-9999.0,WSW,4.6,-,N/A,,Clear,240,2012-11-14 18:50:00
7:50 PM,42.8,39.2,87,30.15,-9999.0,SSW,8.1,-,N/A,,Clear,210,2012-11-14 19:50:00
8:50 PM,45,38,69,30.16,37,SW,10.4,,,,,220,2012-11-14 20:50:00
8:50 PM,44.6,37.4,76,30.15,-9999.0,SW,10.4,-,N/A,,Clear,220,2012-11-14 20:50:00
9:50 PM,42.8,35.6,76,30.15,6.2,SSW,3.5,-,N/A,,Unknown,200,2012-11-14 21:50:00
10:50 PM,42.8,35.6,76,30.15,6.2,SSW,8.1,-,N/A,,Unknown,210,2012-11-14 22:50:00
11:50 PM,42,36,71,30.18,31,SSW,4.6,,,,,210,2012-11-14 23:50:00
11:50 PM,42.8,35.6,76,30.15,6.2,SSW,4.6,-,N/A,,Unknown,210,2012-11-14 23:50:00